[[{"header":{"parameterUnit":"m.s-1","parameterCategory":1,"la1":30.2991,"la2":30.254,"lo1":-89.0895,"lo2":-89.0444,"dy":0.0017,"dx":0.0017,"nx":28,"ny":28,"refTime":"2024-06-27T03:00:00:Z","depth":0,"parameterNumber":2,"parameterNumberName":"U-component_of_WINDS"},"data":[0,0,0,0,0,0,0,0,0,0,0,0,0,0,0,0,0,0,0,0,0,0,0,0,0,0,0,0,0,0,0,0,0,0,0,0,0,0,0,0,0,0,0,0,0,0,0,0,0,0,0,0,0,0,0,0,0,0,2.9625,2.9626,0,2.9685,2.9686,2.9686,2.9646,2.9644,2.9642,2.964,2.9701,2.9705,2.9708,0,0,0,0,0,0,0,0,0,0,0,0,0,2.9473,2.9476,2.9625,2.9626,2.9627,2.9685,2.9686,2.9687,2.9646,2.9644,2.9642,2.964,2.97,2.9704,2.9708,0,0,0,0,0,0,0,0,0,0,0,0,0,2.9537,2.9477,2.9625,2.9614,2.9613,2.9685,2.9686,2.9687,2.9647,2.9644,2.9641,2.9639,2.9699,2.9704,2.9709,2.9795,0,0,2.9724,2.9726,0,0,0,0,0,0,0,0,2.9533,2.9542,2.9615,2.9615,2.9614,2.9655,2.9654,2.9723,2.9647,2.9634,2.964,2.9637,2.9688,2.9694,2.9711,2.9798,2.98,2.9725,2.9728,2.973,2.9731,0,0,0,0,0,0,0,2.9529,2.954,2.9649,2.9616,2.9615,2.9604,2.961,2.9667,2.9676,2.9635,2.9632,2.964,2.9688,2.9707,2.9712,2.9801,2.9724,2.9729,2.9732,2.9734,2.9956,2.9959,0,0,0,0,0,0,2.9526,2.9536,2.9647,2.9651,2.9566,2.9609,2.9616,2.9645,2.9675,2.9677,2.9642,2.9638,2.9699,2.9707,2.9714,2.9813,2.973,2.9734,2.9737,2.9953,2.9957,2.996,0,0,0,0,0,0,2.9523,2.9536,2.9645,2.9593,2.9606,2.9615,2.9648,2.9647,2.9666,2.9681,2.9682,2.966,2.9697,2.9707,2.9774,2.9815,2.9737,2.9741,2.995,2.9954,2.9958,3.0014,0,0,0,0,0,0,2.9519,2.9535,2.9569,2.9594,2.9609,2.9704,2.965,2.9651,2.9675,2.967,2.9698,2.97,2.9696,2.9767,2.9779,2.982,2.9745,2.9946,2.9952,2.9957,3.0009,3.002,3.003,0,0,0,0,0,2.9513,2.9584,2.9571,2.9585,2.9651,2.9707,2.9715,2.971,2.9679,2.9711,2.972,2.9699,2.9809,2.9774,2.9787,2.9831,2.9944,2.995,2.9957,3.0004,3.0018,3.0029,0,0,0,0,0,0,2.9564,2.9587,2.9573,2.9654,2.9678,2.97,2.9742,2.9725,2.976,2.9754,2.9745,2.9752,2.9821,2.9833,2.9794,2.9913,2.9871,2.9881,2.9903,2.9916,2.9926,2.992,2.9749,0,0,0,0,0,2.9585,2.9629,2.9646,2.9715,2.9728,2.9733,2.9757,2.975,2.9776,2.9786,2.98,2.9825,2.9865,2.9891,2.9929,3.0011,3.0014,3.0047,3.0058,3.0066,3.0074,3.0113,3.0127,2.9981,2.9981,2.9981,0,0,2.9628,2.9646,2.9674,2.9726,2.9744,2.9788,2.9742,2.9792,2.9824,2.9794,2.9856,2.9867,2.9895,2.9968,3.0001,2.998,3.0115,3.0074,3.0081,3.0084,3.0121,3.0135,3.0147,2.9986,2.9985,2.9984,0,0,2.9728,2.9748,2.9805,2.9824,2.9852,2.9854,2.9867,2.9891,2.9896,2.9959,2.9936,2.9974,3.0044,3.0063,3.0082,3.0185,3.0165,3.0198,3.0251,3.029,3.0301,3.0311,3.0345,3.0357,3.0206,3.0206,3.0206,0,2.9778,2.9844,2.9837,2.9887,2.9908,2.9883,2.9939,2.9958,2.9997,3.0012,2.9988,3.0072,3.009,3.0165,3.0189,3.0207,3.022,3.0194,3.03,3.031,3.032,3.0351,3.0364,3.0209,3.0209,3.0209,3.0208,0,2.9902,2.9948,2.9991,3.0027,3.0054,3.0107,3.0106,3.0135,3.0125,3.0129,3.0191,3.021,3.0249,3.0267,3.0259,3.034,3.0325,3.0302,3.0258,3.0337,3.0366,3.0379,3.0214,3.0213,3.0212,3.0211,0,0,3.0037,3.0066,3.0082,3.0096,3.0123,3.0158,3.0209,3.0246,3.0268,3.0296,3.0336,3.0394,3.0371,3.0392,3.0386,3.042,3.0496,3.0391,3.0392,3.0407,3.0581,3.0597,3.0611,3.0483,3.0486,3.0488,3.0578,0,3.0135,3.0223,3.0216,3.0299,3.0339,3.0313,3.0357,3.0377,3.0382,3.0415,3.042,3.046,3.0429,3.044,3.0473,3.048,3.053,3.0473,3.0518,3.052,3.0509,3.0627,3.0645,3.0729,3.0589,3.0591,3.0593,0,3.0262,3.0292,3.0378,3.0395,3.0411,3.0451,3.0482,3.0516,3.0537,3.0538,3.056,3.0547,3.0595,3.0553,3.0618,3.0579,3.0597,3.0603,3.0606,3.0608,3.0559,3.0629,3.0756,3.0767,3.0612,3.061,3.0609,0,3.0347,3.0408,3.0466,3.048,3.0503,3.053,3.0541,3.056,3.0582,3.0609,3.0622,3.0656,3.0674,3.0699,3.0694,3.0664,3.0759,3.0717,3.0759,3.0759,3.0779,3.0777,3.0907,3.0795,3.0795,3.0795,3.0795,0,3.0456,3.0509,3.0504,3.054,3.0597,3.0588,3.0644,3.0652,3.0668,3.0703,3.0684,3.0717,3.0711,3.0743,3.074,3.0792,3.0802,3.0801,3.0799,3.0801,3.0801,3.0811,3.0804,3.0798,3.0798,3.0797,3.0796,0,3.056,3.0559,3.062,3.0636,3.0641,3.0682,3.0694,3.0727,3.0729,3.0773,3.0783,3.0786,3.0823,3.0821,3.0864,3.0861,3.0924,3.0917,3.0917,3.0914,3.0954,3.0949,3.1093,3.111,3.0991,3.0992,3.0993,0,3.0628,3.0667,3.0686,3.0708,3.072,3.0756,3.0776,3.0769,3.0791,3.0816,3.0845,3.088,3.0907,3.0967,3.0973,3.1004,3.0995,3.1044,3.1,3.0999,3.0992,3.0988,3.099,3.1051,3.1053,3.1054,3.1055,0,3.0748,3.0745,3.0776,3.0805,3.0831,3.0854,3.0876,3.0894,3.0888,3.0914,3.0951,3.0972,3.1014,3.1047,3.1077,3.1086,3.1069,3.1069,3.1079,3.108,3.1077,3.1075,3.0936,3.1065,3.1064,3.1063,3.1063,3.1062,3.0834,3.0865,3.0882,3.0916,3.0931,3.0951,3.098,3.0985,3.1016,3.1048,3.1042,3.1082,3.1099,3.1136,3.1149,3.1179,3.1162,3.1178,3.1182,3.1185,3.1188,3.1074,3.1185,3.1185,3.1185,3.1184,3.1184,0,3.0949,3.0958,3.0989,3.1018,3.1044,3.1025,3.1047,3.1069,3.1105,3.1122,3.1149,3.1189,3.1221,3.1228,3.1258,3.1281,3.1273,3.1288,3.1285,3.1287,3.1204,3.119,3.1294,3.1294,3.1294,3.1294,3.1294,3.1294,3.1012,3.1064,3.1062,3.112,3.1128,3.1167,3.118,3.1197,3.121,3.1256,3.1282,3.1286,3.1298,3.1328,3.1356,3.1357,3.1367,3.1385,3.1383,3.1305,3.1293,3.1283,3.1269,3.1388,3.1389,3.1463,3.1464,3.1464]},{"header":{"parameterUnit":"m.s-1","parameterCategory":1,"la1":30.2991,"la2":30.254,"lo1":-89.0895,"lo2":-89.0444,"dy":0.0017,"dx":0.0017,"nx":28,"ny":28,"refTime":"2024-06-27T03:00:00:Z","depth":0,"parameterNumber":3,"parameterNumberName":"V-component_of_WINDS"},"data":[0,0,0,0,0,0,0,0,0,0,0,0,0,0,0,0,0,0,0,0,0,0,0,0,0,0,0,0,0,0,0,0,0,0,0,0,0,0,0,0,0,0,0,0,0,0,0,0,0,0,0,0,0,0,0,0,0,0,6.5747,6.5748,0,6.5841,6.5842,6.5843,6.5798,6.5795,6.5793,6.5791,6.5878,6.5883,6.5887,0,0,0,0,0,0,0,0,0,0,0,0,0,6.5519,6.5523,6.5747,6.5748,6.5749,6.5841,6.5842,6.5843,6.5798,6.5795,6.5792,6.579,6.5877,6.5882,6.5888,0,0,0,0,0,0,0,0,0,0,0,0,0,6.5615,6.5524,6.5747,6.5738,6.5738,6.584,6.5842,6.5843,6.5799,6.5795,6.5792,6.5788,6.5875,6.5882,6.5888,6.6002,0,0,6.5909,6.5912,0,0,0,0,0,0,0,0,6.561,6.5624,6.5738,6.5739,6.5739,6.5804,6.5793,6.5896,6.58,6.5776,6.5791,6.5787,6.5856,6.5864,6.5889,6.6006,6.601,6.591,6.5914,6.5917,6.5919,0,0,0,0,0,0,0,6.5603,6.5619,6.5784,6.574,6.5741,6.5726,6.5736,6.5813,6.5834,6.5777,6.5774,6.5787,6.5855,6.5883,6.5891,6.6011,6.591,6.5916,6.592,6.5922,6.6221,6.6225,0,0,0,0,0,0,6.5598,6.5614,6.5781,6.5787,6.5665,6.5733,6.5744,6.5787,6.5833,6.5837,6.5789,6.5784,6.5873,6.5883,6.5894,6.6027,6.5917,6.5923,6.5927,6.6217,6.6222,6.6226,0,0,0,0,0,0,6.5594,6.5614,6.5777,6.57,6.5719,6.5741,6.5789,6.579,6.5818,6.5843,6.5845,6.5814,6.587,6.5884,6.5975,6.603,6.5926,6.5932,6.6213,6.6219,6.6224,6.6296,0,0,0,0,0,0,6.5587,6.5612,6.5658,6.5701,6.5724,6.586,6.5793,6.5795,6.5831,6.5825,6.5866,6.587,6.5869,6.5965,6.5982,6.6037,6.5938,6.6208,6.6215,6.6222,6.6289,6.6304,6.6317,0,0,0,0,0,6.5579,6.5674,6.5661,6.5681,6.5782,6.5863,6.5876,6.5875,6.5836,6.588,6.5895,6.5868,6.6021,6.5975,6.5993,6.6051,6.6204,6.6213,6.6222,6.6283,6.6301,6.6316,0,0,0,0,0,0,6.5633,6.5679,6.5665,6.5777,6.5817,6.5856,6.5912,6.5895,6.5944,6.5936,6.593,6.594,6.6034,6.6052,6.5999,6.6162,6.6106,6.6119,6.6147,6.6164,6.6177,6.617,6.5943,0,0,0,0,0,6.5659,6.5725,6.5759,6.5854,6.5875,6.589,6.5926,6.5922,6.5961,6.5977,6.5999,6.6036,6.6092,6.6129,6.6183,6.6292,6.6298,6.6341,6.6354,6.6366,6.6376,6.6432,6.645,6.6255,6.6255,6.6254,0,0,6.5711,6.5744,6.5785,6.5866,6.5896,6.596,6.5905,6.5975,6.6022,6.5987,6.6074,6.6092,6.6132,6.6232,6.6277,6.625,6.6431,6.6377,6.6385,6.6389,6.6442,6.6461,6.6477,6.6261,6.6259,6.6259,0,0,6.5839,6.5872,6.5954,6.5986,6.6033,6.6042,6.6062,6.6103,6.6114,6.6202,6.6177,6.623,6.6328,6.6357,6.6385,6.6522,6.6498,6.6539,6.6609,6.6664,6.6679,6.6693,6.6739,6.6756,6.655,6.655,6.655,0,6.5897,6.5996,6.5997,6.607,6.6104,6.6078,6.6158,6.6188,6.6249,6.6272,6.6242,6.6362,6.6388,6.6493,6.6526,6.6551,6.657,6.6533,6.6678,6.6691,6.6704,6.6747,6.6765,6.6554,6.6554,6.6553,6.6553,0,6.6063,6.6132,6.6192,6.6254,6.6295,6.6371,6.638,6.6421,6.6413,6.6424,6.6512,6.6542,6.66,6.6625,6.6617,6.6728,6.6709,6.6679,6.6622,6.6727,6.6768,6.6785,6.6561,6.6559,6.6558,6.6557,0,0,6.6228,6.6289,6.6311,6.6338,6.6388,6.6439,6.6512,6.6571,6.6604,6.6647,6.6706,6.6789,6.676,6.6791,6.6786,6.6835,6.6937,6.6798,6.6798,6.682,6.7057,6.7078,6.7098,6.6923,6.6926,6.6929,6.7053,0,6.6357,6.6488,6.649,6.6609,6.667,6.6646,6.6709,6.6744,6.6757,6.6807,6.6819,6.6877,6.6837,6.6855,6.6902,6.6915,6.6985,6.6907,6.6973,6.6976,6.6962,6.712,6.7143,6.7259,6.7069,6.7072,6.7074,0,6.6525,6.6575,6.6701,6.674,6.6766,6.6823,6.6876,6.6926,6.6964,6.6969,6.7004,6.6992,6.7062,6.7005,6.71,6.7047,6.7075,6.7085,6.7089,6.7093,6.703,6.7126,6.7296,6.7313,6.71,6.7098,6.7096,0,6.6628,6.6727,6.6815,6.6839,6.6888,6.6928,6.6949,6.6984,6.7018,6.7063,6.7085,6.7137,6.7164,6.7203,6.7203,6.7163,6.7298,6.7242,6.7301,6.7301,6.7329,6.7327,6.7504,6.7351,6.7351,6.7351,6.735,0,6.6771,6.6848,6.6862,6.6915,6.7,6.7,6.7082,6.71,6.7131,6.7184,6.7166,6.7216,6.7215,6.7264,6.7265,6.7342,6.7355,6.7358,6.7357,6.7359,6.7358,6.7375,6.7365,6.7355,6.7354,6.7353,6.7353,0,6.69,6.6913,6.7006,6.7045,6.7056,6.7116,6.7147,6.7196,6.7207,6.7275,6.729,6.7306,6.7363,6.7368,6.7434,6.7434,6.7526,6.7518,6.7514,6.7512,6.7569,6.7563,6.7761,6.7786,6.762,6.7621,6.7623,0,6.6989,6.7048,6.7093,6.7129,6.7154,6.7212,6.7247,6.7249,6.7285,6.7333,6.7375,6.7431,6.7476,6.7569,6.7583,6.7633,6.7623,6.769,6.7631,6.763,6.7621,6.7617,6.7621,6.77,6.7702,6.7704,6.7705,0,6.7144,6.7148,6.7201,6.7256,6.73,6.7342,6.7382,6.7412,6.7417,6.7459,6.7519,6.7554,6.7622,6.7677,6.7726,6.7744,6.7724,6.7724,6.7739,6.774,6.7735,6.7736,6.7543,6.7719,6.7717,6.7716,6.7715,6.7715,6.7254,6.7305,6.7344,6.7403,6.7434,6.7471,6.7519,6.7536,6.7587,6.7644,6.7641,6.7706,6.7739,6.7803,6.7825,6.7874,6.7851,6.7875,6.788,6.7885,6.789,6.773,6.7883,6.7882,6.7882,6.7882,6.7881,0,6.7406,6.7431,6.7485,6.7542,6.7588,6.7569,6.7612,6.765,6.7709,6.7743,6.7788,6.7855,6.7908,6.7927,6.7978,6.8013,6.8005,6.8026,6.8022,6.8025,6.7909,6.7889,6.8031,6.8031,6.8031,6.8031,6.8031,6.8031,6.749,6.7574,6.7582,6.7678,6.7701,6.7767,6.7793,6.7826,6.7853,6.793,6.7974,6.7988,6.8015,6.8067,6.8113,6.8117,6.8135,6.8159,6.8159,6.8049,6.8034,6.802,6.8001,6.8164,6.8164,6.8271,6.8272,6.8273]}]]